User: anonymous   Login
Location: Unspecified
(0.0000°N, 0.0000°E)
Time: 09:44:01
(UTC+00:00)
Language:

SICRAL 2 - Orbit

View from above orbital plane
View from above orbital plane
View from above satellite
View from above satellite

Ground track
Ground track

The orbit data is extracted from the following two-line orbital elements,

1 40614U 15022B   20019.46534300 0.00000000  00000-0  00000-0 0    05
2 40614   0.0280 323.5607 0003453  99.9334 260.1249  1.00270000    09
Epoch (UTC): 19 January 2020 11:10:05
Eccentricity: 0.0003453
inclination: 0.0280°
perigee height: 35772 km
apogee height: 35801 km
right ascension of ascending node: 323.5607°
argument of perigee: 99.9334°
revolutions per day: 1.00270000
mean anomaly at epoch: 260.1249°
orbit number at epoch: 0

The dashed part of the orbit path shows where the satellite is in the earth's shadow,  

DLR